This demonstration page uses our WeatherBlox Daily Observations layout. Learn more.

Left ArrowRight Arrow

38.80484, -77.04692

Hourly Observations for August 30, 2019

Temp ( °F °C ) Dew Point ( °F °C ) Humidity (%) Winds ( mph kmh ) Pressure ( in mb ) Visibility ( mi km ) Precip ( " mm )
12:52 am 00:52 Clear 69 20.6 58 14.4 68 68 SSW 6 9 30.04 1017 10 16 0.00 0.00
1:52 am 01:52 Clear 68 20 58 14.4 70 70 SSW 5 7 30.06 1018 10 16 0.00 0.00
2:52 am 02:52 Clear 66 18.9 59 15 78 78 SSW 5 7 30.05 1018 10 16 0.00 0.00
3:52 am 03:52 Clear 65 18.3 56 13.3 73 73 SW 5 7 30.05 1018 10 16 0.00 0.00
4:52 am 04:52 Clear 66 18.9 57 13.9 73 73 SW 5 7 30.06 1018 10 16 0.00 0.00
5:52 am 05:52 Clear 67 19.4 57 13.9 71 71 Calm 30.06 1018 10 16 0.00 0.00
6:52 am 06:52 Sunny 67 19.4 60 15.6 79 79 Calm 30.06 1018 10 16 0.00 0.00
7:52 am 07:52 Sunny 69 20.6 61 16.1 76 76 Calm 30.07 1018 10 16 0.00 0.00
8:52 am 08:52 Mostly Sunny 73 22.8 61 16.1 66 66 Calm 30.09 1019 10 16 0.00 0.00
9:52 am 09:52 Sunny 75 23.9 62 16.7 64 64 S 8 13 30.09 1019 10 16 0.00 0.00
10:52 am 10:52 Partly Cloudy 79 26.1 63 17.2 58 58 SSE 6 9 30.10 1019 10 16 0.00 0.00
11:52 am 11:52 Partly Cloudy 82 27.8 62 16.7 51 51 SSE 10 17 30.09 1019 10 16 0.00 0.00
12:52 pm 12:52 Mostly Cloudy 86 30 61 16.1 43 43 S 13 20 30.07 1018 10 16 0.00 0.00
1:52 pm 13:52 Mostly Cloudy 88 31.1 57 13.9 35 35 S 13 20 30.06 1018 10 16 0.00 0.00
3:52 pm 15:52 Mostly Cloudy 89 31.7 61 16.1 39 39 S 12 19 30.03 1017 10 16 0.00 0.00
5:52 pm 17:52 Mostly Cloudy 87 30.6 62 16.7 43 43 S 13 20 30.03 1017 10 16 0.00 0.00
6:52 pm 18:52 Mostly Cloudy 84 28.9 65 18.3 53 53 S 12 19 30.04 1017 10 16 0.00 0.00
7:52 pm 19:52 Mostly Cloudy 80 26.7 65 18.3 60 60 S 9 15 30.05 1018 10 16 0.00 0.00
8:52 pm 20:52 Partly Cloudy 78 25.6 65 18.3 64 64 S 7 11 30.07 1018 10 16 0.00 0.00
9:52 pm 21:52 Partly Cloudy 77 25 62 16.7 60 60 S 8 13 30.09 1019 10 16 0.00 0.00
10:52 pm 22:52 Clear 77 25 64 17.8 64 64 S 3 6 30.10 1019 10 16 0.00 0.00
11:52 pm 23:52 Mostly Clear 76 24.4 65 18.3 69 69 S 6 9 30.11 1020 10 16 0.00 0.00

Powered by AerisWeather